Time,TemperatureF,DewpointF,PressureIn,WindDirection,WindDirectionDegrees,WindSpeedMPH,WindSpeedGustMPH,Humidity,HourlyPrecipIn,Conditions,Clouds,dailyrainin,SoftwareType,DateUTC
2013-03-29 06:53:00,32.1,29.6,29.78,East,90,0.0,0.0,90,0.00,,,0.00,WUHU216HW,2013-03-29 05:53:00,
2013-03-29 07:03:00,32.3,29.8,29.78,East,90,0.0,3.5,90,0.00,,,0.00,WUHU216HW,2013-03-29 06:03:00,
2013-03-29 07:08:00,32.1,29.6,29.78,East,90,0.0,1.1,90,0.00,,,0.00,WUHU216HW,2013-03-29 06:08:00,
2013-03-29 07:13:00,32.1,29.6,29.78,East,90,1.5,1.5,90,0.00,,,0.00,WUHU216HW,2013-03-29 06:13:00,
2013-03-29 07:18:00,32.1,29.6,29.77,East,90,0.0,1.5,90,0.00,,,0.00,WUHU216HW,2013-03-29 06:18:00,
2013-03-29 07:23:00,32.3,29.6,29.78,East,90,1.1,1.3,90,0.00,,,0.00,WUHU216HW,2013-03-29 06:23:00,
2013-03-29 07:28:00,32.1,29.6,29.78,East,90,0.0,2.9,90,0.00,,,0.00,WUHU216HW,2013-03-29 06:28:00,
2013-03-29 07:33:00,32.1,29.6,29.78,East,90,0.0,2.9,90,0.00,,,0.00,WUHU216HW,2013-03-29 06:33:00,
2013-03-29 07:38:00,32.1,29.6,29.78,East,90,0.0,3.1,90,0.00,,,0.00,WUHU216HW,2013-03-29 06:38:00,
2013-03-29 07:43:00,32.1,29.6,29.78,East,90,0.0,3.1,90,0.00,,,0.00,WUHU216HW,2013-03-29 06:43:00,
2013-03-29 07:49:00,32.3,29.8,29.78,East,90,0.0,1.5,90,0.00,,,0.00,WUHU216HW,2013-03-29 06:49:00,
2013-03-29 07:54:00,32.3,29.8,29.78,East,90,0.0,1.5,90,0.00,,,0.00,WUHU216HW,2013-03-29 06:54:00,
2013-03-29 07:59:00,32.5,29.9,29.77,East,90,0.0,2.0,90,0.00,,,0.00,WUHU216HW,2013-03-29 06:59:00,
2013-03-29 08:04:00,32.5,29.9,29.78,East,90,0.0,2.0,90,0.00,,,0.00,WUHU216HW,2013-03-29 07:04:00,
2013-03-29 08:09:00,32.5,29.9,29.77,East,90,0.0,2.4,90,0.00,,,0.00,WUHU216HW,2013-03-29 07:09:00,
2013-03-29 08:14:00,32.5,29.9,29.77,East,90,0.0,3.3,90,0.00,,,0.00,WUHU216HW,2013-03-29 07:14:00,
2013-03-29 08:19:00,32.5,30.1,29.77,East,90,0.0,3.3,90,0.00,,,0.00,WUHU216HW,2013-03-29 07:19:00,
2013-03-29 08:24:00,32.7,30.1,29.76,East,90,0.0,0.0,90,0.00,,,0.00,WUHU216HW,2013-03-29 07:24:00,
2013-03-29 08:29:00,32.7,30.1,29.76,East,90,0.0,0.0,90,0.00,,,0.00,WUHU216HW,2013-03-29 07:29:00,
2013-03-29 08:34:00,32.7,30.1,29.77,East,90,0.0,2.0,90,0.00,,,0.00,WUHU216HW,2013-03-29 07:34:00,
2013-03-29 08:39:00,32.7,30.1,29.76,East,90,0.0,2.2,90,0.00,,,0.00,WUHU216HW,2013-03-29 07:39:00,
2013-03-29 08:44:00,32.7,30.1,29.76,East,90,1.5,2.2,90,0.00,,,0.00,WUHU216HW,2013-03-29 07:44:00,
2013-03-29 08:49:00,32.7,30.2,29.76,East,90,0.0,1.5,90,0.00,,,0.00,WUHU216HW,2013-03-29 07:49:00,
2013-03-29 08:54:00,32.7,30.1,29.76,East,90,0.0,0.0,90,0.00,,,0.00,WUHU216HW,2013-03-29 07:54:00,
2013-03-29 08:59:00,32.9,30.2,29.76,East,90,0.0,0.0,90,0.00,,,0.00,WUHU216HW,2013-03-29 07:59:00,
2013-03-29 09:04:00,32.9,30.2,29.75,NNE,23,0.0,3.3,90,0.00,,,0.00,WUHU216HW,2013-03-29 08:04:00,
2013-03-29 09:09:00,32.9,30.2,29.75,ENE,68,0.0,3.3,90,0.00,,,0.00,WUHU216HW,2013-03-29 08:09:00,
2013-03-29 09:14:00,33.0,30.4,29.75,NE,45,2.9,2.9,90,0.00,,,0.00,WUHU216HW,2013-03-29 08:14:00,
2013-03-29 09:19:00,33.0,30.4,29.76,East,90,0.0,2.9,90,0.00,,,0.00,WUHU216HW,2013-03-29 08:19:00,
2013-03-29 09:24:00,33.0,30.4,29.75,East,90,0.0,0.0,90,0.00,,,0.00,WUHU216HW,2013-03-29 08:24:00,
2013-03-29 09:29:00,33.0,30.4,29.76,ENE,68,0.0,0.0,90,0.00,,,0.00,WUHU216HW,2013-03-29 08:29:00,
2013-03-29 09:34:00,33.0,30.4,29.75,NE,45,0.0,0.0,90,0.00,,,0.00,WUHU216HW,2013-03-29 08:34:00,
2013-03-29 09:39:00,32.9,30.4,29.75,NNE,23,0.0,0.0,90,0.00,,,0.00,WUHU216HW,2013-03-29 08:39:00,
2013-03-29 09:44:00,33.0,30.4,29.75,ENE,68,0.0,0.0,90,0.00,,,0.00,WUHU216HW,2013-03-29 08:44:00,
2013-03-29 09:49:00,33.0,30.4,29.74,NNE,23,0.0,0.0,90,0.00,,,0.00,WUHU216HW,2013-03-29 08:49:00,
2013-03-29 09:54:00,33.2,30.6,29.74,ENE,68,0.0,3.5,90,0.00,,,0.00,WUHU216HW,2013-03-29 08:54:00,
2013-03-29 09:59:00,33.2,30.6,29.74,North,0,1.1,3.5,90,0.00,,,0.00,WUHU216HW,2013-03-29 08:59:00,
2013-03-29 10:04:00,33.4,30.7,29.74,ENE,68,0.0,2.0,90,0.00,,,0.00,WUHU216HW,2013-03-29 09:04:00,
2013-03-29 10:09:00,33.4,30.7,29.74,ENE,68,0.0,2.0,90,0.00,,,0.00,WUHU216HW,2013-03-29 09:09:00,
2013-03-29 10:14:00,33.4,30.7,29.73,NNW,338,0.0,0.0,90,0.00,,,0.00,WUHU216HW,2013-03-29 09:14:00,
2013-03-29 10:19:00,33.4,30.7,29.74,NE,45,0.0,1.3,90,0.00,,,0.00,WUHU216HW,2013-03-29 09:19:00,
2013-03-29 10:24:00,33.4,30.7,29.75,North,0,0.0,2.4,90,0.00,,,0.00,WUHU216HW,2013-03-29 09:24:00,
2013-03-29 10:29:00,33.4,30.7,29.74,NNE,23,0.0,2.4,90,0.00,,,0.00,WUHU216HW,2013-03-29 09:29:00,
2013-03-29 10:34:00,33.6,30.9,29.73,ENE,68,0.8,1.3,90,0.02,,,0.00,WUHU216HW,2013-03-29 09:34:00,
2013-03-29 10:39:00,33.6,30.9,29.74,NNE,23,0.0,1.3,90,0.02,,,0.02,WUHU216HW,2013-03-29 09:39:00,
2013-03-29 10:44:00,33.6,30.9,29.74,NNW,338,0.0,1.1,90,0.02,,,0.02,WUHU216HW,2013-03-29 09:44:00,
2013-03-29 10:49:00,33.6,30.9,29.75,NW,315,0.0,0.0,90,0.04,,,0.04,WUHU216HW,2013-03-29 09:49:00,
2013-03-29 10:54:00,33.6,30.9,29.74,East,90,0.0,0.0,90,0.06,,,0.06,WUHU216HW,2013-03-29 09:54:00,
2013-03-29 10:59:00,33.6,30.9,29.76,NNW,338,2.9,4.2,90,0.08,,,0.06,WUHU216HW,2013-03-29 09:59:00,
2013-03-29 11:04:00,33.6,30.9,29.74,NNE,23,0.0,4.2,90,0.10,,,0.10,WUHU216HW,2013-03-29 10:04:00,
2013-03-29 11:09:00,33.6,30.9,29.75,NNW,338,1.5,2.0,90,0.12,,,0.10,WUHU216HW,2013-03-29 10:09:00,
2013-03-29 11:14:00,33.6,30.9,29.75,NNE,23,0.0,2.0,90,0.14,,,0.12,WUHU216HW,2013-03-29 10:14:00,
2013-03-29 11:19:00,33.6,30.9,29.75,North,0,0.0,0.0,90,0.14,,,0.14,WUHU216HW,2013-03-29 10:19:00,
2013-03-29 11:24:00,33.6,30.9,29.75,North,0,0.0,0.0,90,0.16,,,0.16,WUHU216HW,2013-03-29 10:24:00,
2013-03-29 11:29:00,33.8,31.1,29.75,NNW,338,0.0,0.0,90,0.18,,,0.18,WUHU216HW,2013-03-29 10:29:00,
2013-03-29 11:34:00,33.9,31.1,29.75,North,0,0.0,0.0,90,0.16,,,0.18,WUHU216HW,2013-03-29 10:34:00,
2013-03-29 11:39:00,33.9,31.2,29.74,NNE,23,0.0,0.0,90,0.20,,,0.22,WUHU216HW,2013-03-29 10:39:00,
2013-03-29 11:44:00,34.1,31.4,29.74,NNE,23,0.0,0.0,90,0.18,,,0.22,WUHU216HW,2013-03-29 10:44:00,
2013-03-29 11:49:00,34.1,31.4,29.75,NW,315,2.2,2.2,90,0.16,,,0.22,WUHU216HW,2013-03-29 10:49:00,
2013-03-29 11:54:00,34.1,31.4,29.76,NW,315,0.0,5.1,90,0.18,,,0.24,WUHU216HW,2013-03-29 10:54:00,
2013-03-29 12:01:00,34.3,31.6,29.77,WNW,293,1.5,2.2,90,0.16,,,0.26,WUHU216HW,2013-03-29 11:01:00,
2013-03-29 12:06:00,34.3,31.6,29.77,North,0,0.0,1.5,90,0.14,,,0.26,WUHU216HW,2013-03-29 11:06:00,
2013-03-29 12:11:00,34.3,31.6,29.76,North,0,0.0,0.0,90,0.14,,,0.26,WUHU216HW,2013-03-29 11:11:00,
2013-03-29 12:16:00,34.7,31.8,29.76,North,0,0.0,0.0,90,0.12,,,0.26,WUHU216HW,2013-03-29 11:16:00,
2013-03-29 12:22:00,35.4,32.7,29.76,North,0,0.0,0.0,90,0.12,,,0.28,WUHU216HW,2013-03-29 11:22:00,
2013-03-29 12:27:00,35.4,32.7,29.76,North,0,0.0,0.0,90,0.10,,,0.28,WUHU216HW,2013-03-29 11:27:00,
2013-03-29 12:32:00,35.4,32.7,29.75,NNE,23,0.0,0.0,90,0.12,,,0.30,WUHU216HW,2013-03-29 11:32:00,
2013-03-29 12:37:00,35.4,32.7,29.75,ENE,68,0.0,0.0,90,0.08,,,0.30,WUHU216HW,2013-03-29 11:37:00,
2013-03-29 12:42:00,35.7,33.0,29.75,ESE,113,0.0,1.3,90,0.08,,,0.30,WUHU216HW,2013-03-29 11:42:00,
2013-03-29 12:47:00,35.7,33.0,29.76,East,90,0.0,1.3,90,0.08,,,0.30,WUHU216HW,2013-03-29 11:47:00,
2013-03-29 12:52:00,35.2,32.5,29.76,NE,45,0.0,0.0,90,0.10,,,0.32,WUHU216HW,2013-03-29 11:52:00,
2013-03-29 12:57:00,35.2,32.5,29.75,North,0,0.0,0.0,90,0.06,,,0.32,WUHU216HW,2013-03-29 11:57:00,
2013-03-29 13:02:00,35.2,32.5,29.75,NNE,23,0.0,0.0,90,0.08,,,0.35,WUHU216HW,2013-03-29 12:02:00,
2013-03-29 13:07:00,35.2,32.5,29.76,North,0,0.0,0.0,90,0.08,,,0.35,WUHU216HW,2013-03-29 12:07:00,
2013-03-29 13:12:00,35.2,32.5,29.76,North,0,0.0,0.0,90,0.08,,,0.35,WUHU216HW,2013-03-29 12:12:00,
2013-03-29 13:17:00,35.4,32.7,29.75,NE,45,0.0,0.0,90,0.06,,,0.35,WUHU216HW,2013-03-29 12:17:00,
2013-03-29 13:22:00,35.4,32.7,29.76,NE,45,0.0,0.0,90,0.08,,,0.37,WUHU216HW,2013-03-29 12:22:00,
2013-03-29 13:27:00,35.7,33.0,29.76,ESE,113,0.0,0.0,90,0.08,,,0.37,WUHU216HW,2013-03-29 12:27:00,
2013-03-29 13:32:00,35.7,33.0,29.75,ENE,68,0.0,0.0,90,0.08,,,0.37,WUHU216HW,2013-03-29 12:32:00,
2013-03-29 13:37:00,35.7,33.0,29.75,ESE,113,0.0,0.0,90,0.08,,,0.39,WUHU216HW,2013-03-29 12:37:00,
2013-03-29 13:42:00,35.9,33.2,29.75,SSE,158,0.0,0.0,90,0.08,,,0.39,WUHU216HW,2013-03-29 12:42:00,
2013-03-29 13:47:00,35.7,33.2,29.75,ESE,113,0.0,0.0,90,0.08,,,0.39,WUHU216HW,2013-03-29 12:47:00,
2013-03-29 13:52:00,36.1,33.4,29.75,ESE,113,0.0,0.0,90,0.06,,,0.39,WUHU216HW,2013-03-29 12:52:00,
2013-03-29 13:57:00,36.5,33.8,29.75,ENE,68,0.0,0.0,90,0.06,,,0.41,WUHU216HW,2013-03-29 12:57:00,
2013-03-29 14:02:00,36.5,33.8,29.74,ENE,68,0.0,0.0,90,0.08,,,0.41,WUHU216HW,2013-03-29 13:02:00,
2013-03-29 14:07:00,36.3,33.6,29.74,East,90,0.0,0.0,90,0.08,,,0.42,WUHU216HW,2013-03-29 13:07:00,
2013-03-29 14:12:00,36.6,34.2,29.75,ESE,113,0.0,0.0,91,0.08,,,0.42,WUHU216HW,2013-03-29 13:12:00,
2013-03-29 14:17:00,36.5,33.8,29.75,ESE,113,0.0,0.8,90,0.08,,,0.42,WUHU216HW,2013-03-29 13:17:00,
2013-03-29 14:22:00,36.6,34.2,29.75,ESE,113,0.0,1.3,91,0.08,,,0.44,WUHU216HW,2013-03-29 13:22:00,
2013-03-29 14:27:00,36.6,34.2,29.75,ESE,113,0.0,1.3,91,0.08,,,0.44,WUHU216HW,2013-03-29 13:27:00,
2013-03-29 14:32:00,37.2,34.5,29.76,SE,135,0.0,0.0,90,0.08,,,0.47,WUHU216HW,2013-03-29 13:32:00,
2013-03-29 14:37:00,37.2,34.5,29.75,SSE,158,0.0,0.0,90,0.08,,,0.47,WUHU216HW,2013-03-29 13:37:00,
2013-03-29 14:42:00,37.5,34.8,29.76,SE,135,0.0,0.0,90,0.08,,,0.47,WUHU216HW,2013-03-29 13:42:00,
2013-03-29 14:47:00,37.5,34.8,29.75,SE,135,0.0,0.0,90,0.08,,,0.47,WUHU216HW,2013-03-29 13:47:00,
2013-03-29 14:52:00,37.2,34.5,29.75,SSW,203,0.0,0.0,90,0.08,,,0.49,WUHU216HW,2013-03-29 13:52:00,
2013-03-29 14:57:00,37.2,34.5,29.75,ESE,113,0.0,0.0,90,0.08,,,0.49,WUHU216HW,2013-03-29 13:57:00,
2013-03-29 15:02:00,37.0,34.3,29.74,ESE,113,0.0,0.0,90,0.08,,,0.51,WUHU216HW,2013-03-29 14:02:00,
2013-03-29 15:07:00,36.5,33.8,29.74,ESE,113,0.0,1.3,90,0.08,,,0.51,WUHU216HW,2013-03-29 14:07:00,
2013-03-29 15:12:00,36.3,33.6,29.75,SE,135,0.0,1.3,90,0.08,,,0.51,WUHU216HW,2013-03-29 14:12:00,
2013-03-29 15:17:00,36.3,33.6,29.75,SSE,158,0.0,0.0,90,0.06,,,0.51,WUHU216HW,2013-03-29 14:17:00,
2013-03-29 15:22:00,36.1,33.4,29.75,SSE,158,0.0,0.0,90,0.06,,,0.51,WUHU216HW,2013-03-29 14:22:00,
2013-03-29 15:27:00,36.1,33.4,29.75,SE,135,0.0,0.0,90,0.06,,,0.51,WUHU216HW,2013-03-29 14:27:00,
2013-03-29 15:32:00,36.1,33.4,29.74,SE,135,0.0,0.0,90,0.04,,,0.51,WUHU216HW,2013-03-29 14:32:00,
2013-03-29 15:37:00,36.1,33.4,29.73,ESE,113,0.0,0.0,90,0.04,,,0.51,WUHU216HW,2013-03-29 14:37:00,
2013-03-29 15:43:00,36.1,33.4,29.74,SE,135,0.0,0.0,90,0.06,,,0.53,WUHU216HW,2013-03-29 14:43:00,
2013-03-29 15:48:00,35.9,33.2,29.74,South,180,0.0,0.0,90,0.06,,,0.53,WUHU216HW,2013-03-29 14:48:00,
2013-03-29 15:53:00,35.7,33.0,29.74,SSE,158,0.0,0.0,90,0.04,,,0.53,WUHU216HW,2013-03-29 14:53:00,
2013-03-29 15:58:00,35.7,33.0,29.74,ESE,113,0.0,0.0,90,0.02,,,0.53,WUHU216HW,2013-03-29 14:58:00,
2013-03-29 16:03:00,35.7,33.0,29.74,SE,135,0.0,0.0,90,0.02,,,0.53,WUHU216HW,2013-03-29 15:03:00,
2013-03-29 16:08:00,35.7,33.0,29.74,SE,135,0.0,0.0,90,0.04,,,0.53,WUHU216HW,2013-03-29 15:08:00,
2013-03-29 16:13:00,35.9,33.2,29.73,SE,135,0.0,0.0,90,0.04,,,0.55,WUHU216HW,2013-03-29 15:13:00,
2013-03-29 16:18:00,35.9,33.2,29.73,ESE,113,0.0,0.0,90,0.04,,,0.55,WUHU216HW,2013-03-29 15:18:00,
2013-03-29 16:23:00,35.9,33.2,29.73,SSE,158,0.0,0.0,90,0.04,,,0.55,WUHU216HW,2013-03-29 15:23:00,
2013-03-29 16:28:00,35.9,33.2,29.73,ESE,113,0.0,0.0,90,0.04,,,0.55,WUHU216HW,2013-03-29 15:28:00,
2013-03-29 16:33:00,35.7,33.0,29.73,SSE,158,0.0,0.0,90,0.04,,,0.55,WUHU216HW,2013-03-29 15:33:00,
2013-03-29 16:38:00,35.7,33.0,29.73,SSE,158,0.0,0.0,90,0.04,,,0.55,WUHU216HW,2013-03-29 15:38:00,
2013-03-29 16:43:00,35.7,33.0,29.73,SE,135,0.0,0.0,90,0.02,,,0.55,WUHU216HW,2013-03-29 15:43:00,
2013-03-29 16:48:00,35.7,33.0,29.73,SSE,158,0.0,0.0,90,0.02,,,0.55,WUHU216HW,2013-03-29 15:48:00,
2013-03-29 16:53:00,35.7,33.0,29.73,SE,135,0.0,0.0,90,0.02,,,0.55,WUHU216HW,2013-03-29 15:53:00,
2013-03-29 16:58:00,35.7,33.0,29.73,SSE,158,0.0,0.0,90,0.02,,,0.55,WUHU216HW,2013-03-29 15:58:00,
2013-03-29 17:03:00,35.7,33.0,29.73,SSE,158,0.0,0.0,90,0.02,,,0.55,WUHU216HW,2013-03-29 16:03:00,
2013-03-29 17:08:00,35.4,32.7,29.73,SSE,158,0.0,0.0,90,0.00,,,0.55,WUHU216HW,2013-03-29 16:08:00,
2013-03-29 17:13:00,35.4,32.7,29.73,SSW,203,0.0,0.0,90,0.00,,,0.55,WUHU216HW,2013-03-29 16:13:00,
2013-03-29 17:18:00,35.4,32.7,29.72,SSW,203,0.0,0.0,90,0.00,,,0.55,WUHU216HW,2013-03-29 16:18:00,
2013-03-29 17:23:00,35.4,32.7,29.72,SSW,203,0.0,0.0,90,0.00,,,0.55,WUHU216HW,2013-03-29 16:23:00,
2013-03-29 17:28:00,35.4,32.7,29.72,South,180,0.0,0.0,90,0.02,,,0.57,WUHU216HW,2013-03-29 16:28:00,
2013-03-29 17:33:00,35.2,32.5,29.72,South,180,0.0,0.0,90,0.02,,,0.57,WUHU216HW,2013-03-29 16:33:00,
2013-03-29 17:38:00,35.2,32.5,29.73,South,180,0.0,0.0,90,0.02,,,0.57,WUHU216HW,2013-03-29 16:38:00,
2013-03-29 17:43:00,35.0,32.3,29.73,South,180,0.0,0.0,90,0.02,,,0.57,WUHU216HW,2013-03-29 16:43:00,
2013-03-29 17:48:00,34.8,32.1,29.72,South,180,0.0,0.0,90,0.02,,,0.57,WUHU216HW,2013-03-29 16:48:00,
2013-03-29 17:53:00,34.8,32.1,29.72,SW,225,0.0,0.0,90,0.02,,,0.57,WUHU216HW,2013-03-29 16:53:00,
2013-03-29 17:58:00,34.7,32.0,29.72,West,270,0.0,0.0,90,0.02,,,0.57,WUHU216HW,2013-03-29 16:58:00,
2013-03-29 18:03:00,34.5,31.8,29.72,West,270,0.0,0.0,90,0.02,,,0.57,WUHU216HW,2013-03-29 17:03:00,
2013-03-29 18:08:00,34.3,31.6,29.72,WSW,248,0.0,0.0,90,0.02,,,0.57,WUHU216HW,2013-03-29 17:08:00,
2013-03-29 18:13:00,34.3,31.6,29.72,South,180,0.0,0.0,90,0.02,,,0.57,WUHU216HW,2013-03-29 17:13:00,
2013-03-29 18:18:00,34.3,31.6,29.73,WSW,248,0.0,0.0,90,0.02,,,0.57,WUHU216HW,2013-03-29 17:18:00,
2013-03-29 18:23:00,34.3,31.6,29.73,WSW,248,0.0,0.0,90,0.00,,,0.57,WUHU216HW,2013-03-29 17:23:00,
2013-03-29 18:28:00,34.3,31.6,29.72,WSW,248,0.0,0.0,90,0.00,,,0.57,WUHU216HW,2013-03-29 17:28:00,
2013-03-29 18:33:00,34.3,31.6,29.73,West,270,0.0,0.0,90,0.00,,,0.57,WUHU216HW,2013-03-29 17:33:00,
2013-03-29 18:38:00,34.1,31.4,29.73,West,270,0.0,0.0,90,0.00,,,0.57,WUHU216HW,2013-03-29 17:38:00,
2013-03-29 18:44:00,33.9,31.2,29.73,West,270,0.0,0.0,90,0.00,,,0.57,WUHU216HW,2013-03-29 17:44:00,
2013-03-29 18:49:00,33.9,31.2,29.72,WNW,293,0.0,0.0,90,0.00,,,0.57,WUHU216HW,2013-03-29 17:49:00,
2013-03-29 18:54:00,33.9,31.2,29.72,WNW,293,0.0,0.0,90,0.00,,,0.57,WUHU216HW,2013-03-29 17:54:00,
2013-03-29 18:59:00,33.9,31.2,29.73,WNW,293,0.0,0.0,90,0.00,,,0.57,WUHU216HW,2013-03-29 17:59:00,
2013-03-29 19:04:00,33.9,31.2,29.73,WSW,248,0.0,0.0,90,0.00,,,0.57,WUHU216HW,2013-03-29 18:04:00,
2013-03-29 19:09:00,34.1,31.4,29.73,WSW,248,0.0,0.0,90,0.00,,,0.57,WUHU216HW,2013-03-29 18:09:00,
2013-03-29 19:14:00,33.9,31.2,29.73,WSW,248,0.0,0.0,90,0.00,,,0.57,WUHU216HW,2013-03-29 18:14:00,
2013-03-29 19:19:00,33.8,31.1,29.73,West,270,0.0,0.0,90,0.00,,,0.57,WUHU216HW,2013-03-29 18:19:00,
2013-03-29 19:24:00,33.8,31.1,29.73,West,270,0.0,0.0,90,0.00,,,0.57,WUHU216HW,2013-03-29 18:24:00,
2013-03-29 19:29:00,33.6,30.9,29.73,West,270,0.0,0.0,90,0.02,,,0.59,WUHU216HW,2013-03-29 18:29:00,
2013-03-29 19:34:00,33.6,30.9,29.73,West,270,0.0,0.0,90,0.02,,,0.59,WUHU216HW,2013-03-29 18:34:00,
2013-03-29 19:39:00,33.6,30.9,29.73,West,270,0.0,0.0,90,0.02,,,0.59,WUHU216HW,2013-03-29 18:39:00,
2013-03-29 19:44:00,33.6,30.9,29.73,West,270,0.0,0.0,90,0.02,,,0.59,WUHU216HW,2013-03-29 18:44:00,
2013-03-29 19:49:00,33.6,30.9,29.73,WSW,248,0.0,0.0,90,0.02,,,0.59,WUHU216HW,2013-03-29 18:49:00,
2013-03-29 19:54:00,33.6,30.9,29.73,WSW,248,0.0,0.0,90,0.02,,,0.59,WUHU216HW,2013-03-29 18:54:00,
2013-03-29 19:59:00,33.6,30.9,29.73,WSW,248,0.0,0.0,90,0.02,,,0.59,WUHU216HW,2013-03-29 18:59:00,
2013-03-29 20:04:00,33.4,30.9,29.73,WSW,248,0.0,0.0,90,0.02,,,0.59,WUHU216HW,2013-03-29 19:04:00,
2013-03-29 20:09:00,33.4,30.7,29.74,West,270,0.0,0.0,90,0.02,,,0.59,WUHU216HW,2013-03-29 19:09:00,
2013-03-29 20:14:00,33.4,30.7,29.74,West,270,0.0,0.0,90,0.02,,,0.59,WUHU216HW,2013-03-29 19:14:00,
2013-03-29 20:19:00,33.4,30.7,29.74,West,270,0.0,0.0,90,0.02,,,0.59,WUHU216HW,2013-03-29 19:19:00,
2013-03-29 20:24:00,33.6,30.9,29.76,West,270,0.0,0.0,90,0.00,,,0.59,WUHU216HW,2013-03-29 19:24:00,
2013-03-29 20:29:00,33.6,30.9,29.76,West,270,0.0,0.0,90,0.00,,,0.59,WUHU216HW,2013-03-29 19:29:00,
2013-03-29 20:34:00,33.9,31.2,29.77,West,270,0.0,2.4,90,0.00,,,0.59,WUHU216HW,2013-03-29 19:34:00,
2013-03-29 20:39:00,34.1,31.4,29.77,West,270,0.0,2.4,90,0.00,,,0.59,WUHU216HW,2013-03-29 19:39:00,
2013-03-29 20:44:00,34.3,31.6,29.78,West,270,0.0,1.3,90,0.00,,,0.59,WUHU216HW,2013-03-29 19:44:00,
2013-03-29 20:49:00,34.3,31.6,29.78,West,270,0.0,0.0,90,0.00,,,0.59,WUHU216HW,2013-03-29 19:49:00,
2013-03-29 20:54:00,34.3,31.6,29.79,West,270,0.0,0.0,90,0.00,,,0.59,WUHU216HW,2013-03-29 19:54:00,
2013-03-29 20:59:00,34.3,31.6,29.78,West,270,0.0,0.0,90,0.00,,,0.59,WUHU216HW,2013-03-29 19:59:00,
2013-03-29 21:04:00,34.3,31.6,29.79,West,270,0.0,0.0,90,0.00,,,0.59,WUHU216HW,2013-03-29 20:04:00,